Date,TemperatureHighF,TemperatureAvgF,TemperatureLowF,DewpointHighF,DewpointAvgF,DewpointLowF,HumidityHigh,HumidityAvg,HumidityLow,PressureMaxIn,PressureMinIn,WindSpeedMaxMPH,WindSpeedAvgMPH,GustSpeedMaxMPH,PrecipitationSumIn
2013-1-1,39,36,29,32,30,21,81,78,72,29.97,29.84,2,0,10,0.06
2013-1-2,32,27,23,21,18,16,76,69,60,30.16,29.94,4,0,16,0.01
2013-1-3,33,26,19,21,18,14,81,71,59,30.16,30.06,2,0,16,0.00
2013-1-4,37,32,30,26,24,21,74,69,63,30.09,29.98,3,0,15,0.00
2013-1-5,39,31,27,27,23,21,84,72,60,30.31,30.03,3,0,13,0.00
2013-1-6,46,36,28,34,29,24,94,77,59,30.17,29.96,2,0,11,0.02
2013-1-7,43,37,28,34,30,24,85,75,63,30.37,30.06,2,0,12,0.01
2013-1-8,45,34,25,35,28,22,92,81,68,30.36,30.31,2,0,10,0.00
2013-1-9,46,37,28,40,34,26,95,86,77,30.34,30.14,1,0,10,0.00
2013-1-10,48,41,36,35,31,28,77,67,58,30.50,30.26,2,0,13,0.00
2013-1-11,44,38,32,40,34,26,96,84,74,30.46,30.04,1,0,5,0.51
2013-1-12,54,44,40,50,43,38,98,94,86,30.12,30.04,0,0,4,0.23
2013-1-13,45,43,40,45,42,38,99,97,94,30.11,29.94,1,0,6,0.00
2013-1-14,52,47,39,52,45,37,99,93,72,30.25,29.91,2,0,11,0.14
2013-1-15,39,36,33,37,33,29,96,89,80,30.29,30.14,0,0,5,0.30
2013-1-16,36,33,32,35,32,30,98,96,91,30.14,29.78,1,0,7,0.97
2013-1-17,40,37,34,37,32,29,98,81,72,30.07,29.89,2,0,14,0.01
2013-1-18,34,29,23,29,19,13,83,68,52,30.42,29.96,4,0,22,0.00
2013-1-19,48,36,25,34,27,16,85,69,56,30.35,29.88,5,1,16,0.00
2013-1-20,54,41,28,37,27,16,73,59,38,30.01,29.72,6,1,28,0.00
2013-1-21,31,26,21,23,16,11,81,64,56,30.05,29.80,3,0,15,0.00
2013-1-22,22,16,10,15,3,-1,77,55,45,30.20,29.83,6,1,20,0.00
2013-1-23,19,13,9,5,2,-1,72,61,51,30.23,30.11,3,0,15,0.00
2013-1-24,25,17,9,10,5,2,77,61,43,30.40,30.05,3,0,16,0.00
2013-1-25,20,15,10,13,7,2,87,70,52,30.41,30.01,2,0,11,0.00
2013-1-26,27,18,9,16,12,6,90,78,61,30.35,30.01,4,0,13,0.04
2013-1-27,34,23,12,22,15,7,83,71,54,30.51,30.35,1,0,12,0.01
2013-1-28,37,30,21,36,27,15,97,91,76,30.45,29.99,3,0,14,0.18
2013-1-29,55,45,37,50,43,36,98,94,84,30.10,29.97,1,0,9,0.11
2013-1-30,65,51,40,61,50,39,99,95,86,29.99,29.28,6,1,24,1.03
2013-1-31,55,36,26,54,25,14,98,63,52,29.80,29.21,6,2,28,1.49
2013-2-1,28,25,18,20,13,8,74,60,49,30.24,29.78,7,1,24,0.03
2013-2-2,25,20,14,21,12,6,91,71,56,30.27,29.97,3,0,14,0.00
2013-2-3,31,25,20,25,21,17,93,85,70,29.97,29.76,6,0,21,0.11
2013-2-4,30,24,17,21,15,10,81,68,58,30.00,29.84,5,0,21,0.02
2013-2-5,32,29,26,28,26,21,93,87,82,29.89,29.82,1,0,3,0.01
2013-2-6,38,31,25,31,25,19,95,81,63,30.30,29.88,3,0,16,0.02
2013-2-7,33,28,21,24,19,16,85,70,52,30.42,30.21,1,0,6,0.01
2013-2-8,34,32,29,33,30,22,97,91,74,30.21,29.66,3,0,15,0.18
2013-2-9,33,27,22,29,20,14,96,74,63,30.32,29.75,5,2,23,0.05
2013-2-10,40,28,16,27,17,10,85,63,40,30.43,30.24,2,0,9,0.01
2013-2-11,47,39,31,47,37,27,99,94,84,30.24,29.63,3,1,15,0.27
2013-2-12,46,38,29,38,30,24,98,73,58,29.94,29.74,6,1,22,0.01
2013-2-13,43,33,25,32,28,22,93,80,64,29.92,29.63,2,0,7,0.00
2013-2-14,44,36,30,36,30,25,96,82,58,29.96,29.68,2,0,10,0.18
2013-2-15,55,41,30,41,33,26,94,75,55,29.97,29.87,1,0,13,0.11
2013-2-16,34,32,28,31,28,18,95,86,67,29.95,29.75,0,0,10,0.22
2013-2-17,30,25,20,19,13,5,76,60,50,30.05,29.72,6,2,25,0.01
2013-2-18,35,25,17,18,13,7,70,59,45,30.27,30.05,4,1,22,0.00
2013-2-19,40,34,27,39,29,16,96,83,63,30.13,29.65,4,1,20,0.27
2013-2-20,33,27,22,27,17,12,78,65,58,30.02,29.74,6,2,23,0.01
2013-2-21,34,27,21,21,16,12,70,65,55,30.26,29.99,5,1,22,0.00
2013-2-22,33,28,22,29,22,16,88,76,68,30.33,30.19,2,0,9,0.00
2013-2-23,42,37,32,41,36,29,97,95,88,30.19,29.77,0,0,7,0.12
2013-2-24,45,37,30,41,31,21,98,82,62,30.01,29.72,6,1,18,0.02
2013-2-25,46,35,28,33,26,21,79,70,56,30.18,30.00,2,0,15,0.00
2013-2-26,42,34,26,35,30,22,95,84,71,30.19,29.71,3,1,17,0.39
2013-2-27,49,42,36,45,39,34,99,89,73,29.71,29.48,5,1,23,0.55
2013-2-28,44,39,34,38,33,29,92,78,57,29.64,29.55,2,0,13,0.01
2013-3-1,42,37,32,34,30,25,88,76,65,29.79,29.62,2,0,12,0.01
2013-3-2,39,33,30,28,25,23,79,71,62,29.78,29.70,2,0,13,0.00
2013-3-3,36,31,26,24,22,18,78,69,58,29.78,29.69,4,1,17,0.00
2013-3-4,38,31,27,26,22,18,73,67,58,29.94,29.78,5,2,24,0.00
2013-3-5,46,36,28,33,26,21,79,69,55,29.99,29.86,1,0,13,0.00
2013-3-6,38,36,33,36,32,27,93,86,73,29.91,29.70,6,2,20,0.18
2013-3-7,46,38,32,32,28,24,76,66,56,30.06,29.90,2,0,16,0.01
2013-3-8,43,36,29,32,27,21,89,69,58,30.20,30.03,3,1,17,0.02
2013-3-9,61,44,32,34,26,20,70,51,30,30.27,30.17,1,0,12,0.01
2013-3-10,57,43,29,36,28,18,89,56,36,30.30,30.21,3,0,10,0.00
2013-3-11,55,46,37,49,42,34,98,88,71,30.25,29.99,3,0,12,0.00
2013-3-12,56,49,39,56,47,33,99,93,78,29.99,29.66,6,2,16,1.18
2013-3-13,47,39,32,37,30,22,86,71,55,29.93,29.81,5,1,16,0.02
2013-3-14,40,33,27,23,20,17,77,59,45,29.97,29.90,6,2,25,0.00
2013-3-15,51,38,25,35,25,15,72,60,47,29.99,29.70,5,1,20,0.00
2013-3-16,43,36,31,34,30,27,95,81,65,29.88,29.69,1,0,9,0.11
2013-3-17,40,32,28,31,27,20,95,81,60,30.24,29.87,1,0,10,0.08
2013-3-18,36,31,27,32,24,17,96,77,57,30.30,29.85,2,0,10,0.27
2013-3-19,50,39,33,43,33,23,98,80,44,29.85,29.66,5,1,16,0.68
2013-3-20,47,37,29,27,23,20,75,56,39,29.89,29.74,6,1,17,0.01
2013-3-21,37,32,26,28,21,13,88,65,48,29.78,29.64,3,0,18,0.00
2013-3-22,41,32,24,27,22,15,80,66,52,29.91,29.75,4,1,18,0.00
2013-3-23,47,37,29,29,24,21,74,62,48,29.93,29.85,4,1,19,0.00
2013-3-24,45,36,25,28,24,19,78,62,46,29.94,29.63,2,0,7,0.00
2013-3-25,36,34,32,34,31,26,95,87,72,29.65,29.44,2,0,17,0.34
2013-3-26,51,39,32,40,33,31,96,82,48,29.88,29.60,2,0,15,0.09
2013-3-27,51,41,34,34,31,28,87,69,51,30.00,29.88,5,1,19,0.01
2013-3-28,47,40,34,35,31,27,82,69,57,30.10,29.97,3,0,14,0.00
2013-3-29,53,44,35,36,31,27,79,61,51,30.15,30.07,3,0,13,0.00
2013-3-30,57,45,34,36,30,26,77,58,41,30.16,30.07,2,0,12,0.00
2013-3-31,53,43,33,46,36,-100,97,78,55,30.09,29.68,5,1,15,0.07
2013-4-1,63,47,37,47,38,18,98,73,43,29.90,29.66,6,1,23,0.02
2013-4-2,44,36,30,23,19,15,60,50,39,30.09,29.91,4,1,20,0.01
2013-4-3,48,36,28,25,19,15,64,50,37,30.28,30.08,5,1,19,0.00
2013-4-4,52,37,25,29,22,14,69,53,39,30.37,30.05,3,0,11,0.00
2013-4-5,62,48,36,36,33,27,90,60,34,30.04,29.75,4,0,13,0.00
2013-4-8,73,65,62,54,52,51,72,63,48,29.96,29.93,2,0,12,0.00
2013-4-9,82,70,57,60,55,51,80,61,42,30.01,29.88,5,0,19,0.00
2013-4-10,87,73,62,65,59,54,92,63,46,29.91,29.73,4,1,16,0.14
2013-4-11,72,61,50,65,58,46,98,88,76,29.88,29.77,2,0,12,0.14
2013-4-12,49,45,43,46,44,42,98,96,88,29.87,29.63,3,0,14,0.58
2013-4-13,59,49,40,44,41,39,98,75,52,29.93,29.71,2,0,14,0.05
2013-4-14,60,50,38,41,37,34,85,63,45,30.12,29.93,3,0,15,0.00
2013-4-15,60,51,46,49,42,34,83,71,60,30.29,30.11,2,0,11,0.00
2013-4-16,70,58,45,60,52,42,92,82,70,30.29,30.08,4,1,17,0.00
2013-4-17,71,61,54,57,52,43,96,74,44,30.24,30.06,2,0,11,0.00
2013-4-18,61,56,53,60,52,42,97,85,65,30.24,30.01,3,0,11,0.04
2013-4-19,74,64,53,67,61,51,99,91,76,30.02,29.57,6,1,20,1.01
2013-4-20,56,49,42,52,38,28,95,68,46,30.29,29.70,5,1,23,1.08
2013-4-21,52,43,33,36,29,22,76,58,43,30.55,30.29,2,0,11,0.00
2013-4-22,54,43,31,42,35,28,93,73,54,30.56,30.39,2,0,15,0.00
2013-4-23,54,46,41,46,41,35,89,81,71,30.39,30.10,2,0,10,0.00
2013-4-24,71,54,38,61,49,37,98,87,69,30.11,29.76,3,0,14,0.01
2013-4-25,61,51,41,58,37,32,89,60,42,30.25,29.88,6,1,25,0.01
2013-4-26,62,52,42,43,36,31,73,56,37,30.40,30.25,2,0,10,0.00
2013-4-27,68,54,39,45,37,29,71,53,37,30.40,30.25,1,0,13,0.00
2013-4-28,67,56,45,48,41,36,88,60,41,30.26,30.15,3,0,15,0.00
2013-4-29,55,53,51,54,51,39,98,92,59,30.17,30.07,1,0,10,0.49
2013-4-30,68,57,49,55,49,36,98,77,51,30.28,30.11,2,0,12,0.05
2013-5-1,69,54,39,47,40,34,82,60,36,30.42,30.28,2,0,11,0.01
2013-5-2,70,56,40,51,45,38,97,70,43,30.42,30.29,2,0,7,0.00
2013-5-3,65,54,44,48,44,39,93,69,45,30.37,30.29,2,0,13,0.00
2013-5-4,69,54,39,51,44,37,97,71,45,30.32,30.16,1,0,14,0.00
2013-5-5,64,52,41,50,43,38,92,73,50,30.23,30.14,2,0,11,0.00
2013-5-6,66,53,40,57,49,38,97,86,72,30.19,30.07,1,0,11,0.00
2013-5-7,70,58,52,64,56,50,98,93,76,30.10,29.99,2,0,10,0.27
2013-5-8,71,61,56,64,58,55,99,91,61,30.01,29.89,2,0,11,0.54
2013-5-9,68,60,54,61,57,53,99,90,75,29.95,29.88,2,0,13,0.17
2013-5-10,80,65,52,65,57,-100,100,81,52,29.98,29.87,3,0,13,0.70
2013-5-11,70,64,60,68,63,59,100,97,87,29.91,29.69,2,0,13,1.43
2013-5-12,61,56,47,61,44,-100,99,67,43,29.95,29.69,5,1,19,0.01
2013-5-13,54,47,40,39,33,30,78,60,45,30.10,29.95,2,0,17,0.00
2013-5-14,59,48,33,41,35,29,86,63,42,30.14,30.01,2,0,14,0.00
2013-5-15,70,58,48,62,52,42,91,82,70,30.04,29.68,2,0,11,0.04
2013-5-16,79,63,59,69,40,-100,98,82,54,29.84,29.70,2,0,10,0.13
2013-5-17,75,64,56,56,43,-100,70,56,40,30.15,29.85,1,0,7,0.01
2013-5-18,69,61,57,57,53,48,96,76,59,30.23,30.15,2,0,11,0.03
2013-5-19,63,60,57,62,59,56,99,98,96,30.22,30.11,0,0,6,0.11
2013-5-20,76,68,60,71,65,60,100,92,82,30.13,29.96,1,0,6,0.02
2013-5-21,81,72,64,74,69,62,99,89,74,29.96,29.85,1,0,13,0.01
2013-5-22,86,75,67,77,71,66,99,87,64,29.90,29.80,1,0,11,0.00
2013-5-23,77,71,65,72,68,63,97,90,81,29.86,29.72,2,0,12,0.26
2013-5-24,65,55,45,64,51,40,98,88,72,30.02,29.69,4,1,22,0.22
2013-5-25,61,52,44,43,40,36,85,64,46,30.06,29.98,5,1,22,0.01
2013-5-26,69,57,46,48,41,36,74,57,39,30.18,30.03,4,0,16,0.01
2013-5-27,71,58,40,52,44,35,90,63,42,30.24,30.13,2,0,12,0.00
2013-5-28,64,59,53,63,56,47,98,92,72,30.18,30.07,0,0,5,0.29
2013-5-29,87,74,62,73,67,61,99,81,56,30.08,30.02,2,0,14,0.01
2013-5-30,90,78,66,73,69,64,97,74,51,30.14,30.07,1,0,7,0.00
2013-5-31,89,78,67,73,68,65,95,73,47,30.11,30.00,2,0,11,0.00
2013-6-1,87,77,65,75,70,63,96,78,63,30.02,29.89,1,0,10,0.00
2013-6-2,84,77,70,75,69,-100,92,81,71,29.90,29.78,2,0,12,0.00
2013-6-3,79,72,65,71,66,59,98,84,65,29.87,29.79,0,0,10,0.16
2013-6-4,73,64,54,59,51,47,83,64,47,30.09,29.87,2,0,11,0.01
2013-6-5,77,64,48,57,50,44,90,63,44,30.17,30.05,1,0,7,0.00
2013-6-6,71,63,55,63,57,50,97,81,62,30.10,29.92,1,0,10,0.38
2013-6-7,67,64,61,67,64,60,100,99,97,29.91,29.57,1,0,12,2.67
2013-6-8,74,66,60,68,63,59,100,91,73,30.06,29.61,1,0,9,0.33
2013-6-9,79,69,57,68,62,54,96,79,63,30.18,30.06,1,0,7,0.00
2013-6-10,72,69,65,72,68,63,100,96,85,30.12,29.75,1,0,11,2.19
2013-6-11,79,72,65,71,67,62,100,86,73,29.78,29.69,3,0,15,0.41
2013-6-12,80,73,64,69,64,61,90,76,60,29.82,29.77,2,0,15,0.01
2013-6-13,81,70,61,73,65,58,98,86,70,29.81,29.38,4,0,15,0.52
2013-6-14,76,64,55,62,57,54,97,80,58,29.92,29.50,2,0,14,0.16
2013-6-15,79,69,58,65,59,54,92,73,54,30.03,29.91,1,0,15,0.01
2013-6-16,81,68,57,70,62,53,94,82,63,29.99,29.82,3,0,14,0.10
2013-6-17,83,73,65,74,68,64,97,86,66,29.92,29.84,1,0,10,0.01
2013-6-18,77,67,63,73,66,61,97,94,85,29.90,29.78,2,0,11,1.09
2013-6-19,75,66,58,63,59,55,98,79,52,30.14,29.85,2,0,10,0.02
2013-6-20,77,65,54,66,58,51,93,79,57,30.25,30.13,1,0,7,0.00
2013-6-22,84,79,74,72,70,66,81,74,66,30.23,30.10,1,0,10,0.00
2013-6-23,84,74,63,76,70,61,97,87,72,30.18,30.04,1,0,11,0.04
2013-6-24,87,75,70,78,72,67,99,91,70,30.08,29.98,1,0,8,0.03
2013-6-25,88,76,66,77,72,65,97,87,62,30.00,29.84,4,0,21,0.22
2013-6-26,87,75,67,77,70,65,95,84,69,29.88,29.77,2,0,12,0.05
2013-6-27,86,74,67,78,71,66,98,92,71,29.81,29.54,1,0,14,2.10
2013-6-28,82,72,68,74,70,67,99,92,73,29.57,29.47,1,0,9,1.38
2013-6-29,84,75,65,72,68,64,99,81,59,29.68,29.47,1,0,7,0.01
2013-6-30,81,75,70,76,72,66,98,90,79,29.85,29.68,2,0,7,0.05
2013-7-1,77,74,71,75,73,70,98,96,92,29.98,29.84,1,0,10,1.57
2013-7-2,81,76,73,76,73,71,98,93,81,30.15,29.98,2,0,12,0.01
2013-7-3,83,76,71,78,74,70,98,92,80,30.22,30.15,1,0,6,0.06
2013-7-4,86,80,73,78,75,72,98,86,75,30.24,30.15,2,0,11,0.01
2013-7-5,87,79,74,79,75,72,98,88,74,30.20,30.09,1,0,11,0.00
2013-7-6,91,81,73,80,76,71,98,84,65,30.16,30.03,1,0,10,0.00
2013-7-7,90,79,70,80,74,68,96,86,70,30.08,29.95,4,0,21,0.31
2013-7-8,84,72,68,76,68,-100,99,92,73,30.06,30.00,1,0,7,0.33
2013-7-9,83,76,70,78,72,68,96,89,78,30.06,29.98,0,0,7,0.02
2013-7-10,85,76,71,78,71,-100,98,88,79,30.00,29.82,1,0,10,0.13
2013-7-11,83,76,72,76,72,65,96,86,73,29.90,29.80,0,0,9,0.02
2013-7-12,73,70,68,71,66,63,98,88,80,30.00,29.90,1,0,20,1.38
2013-7-13,84,75,68,78,73,68,100,93,77,30.27,30.00,2,0,7,1.38
2013-7-14,87,80,73,79,75,71,99,86,69,30.33,30.24,1,0,9,0.03
2013-7-15,92,79,71,81,74,69,97,84,63,30.27,30.15,2,0,7,0.01
2013-7-16,91,82,75,77,74,71,91,78,59,30.22,30.14,0,0,9,0.00
2013-7-17,91,80,73,78,72,68,88,78,60,30.20,30.07,0,0,4,0.00
2013-7-18,94,83,74,82,77,71,92,83,66,30.09,29.97,0,0,6,0.00
2013-7-19,92,84,77,83,79,71,97,84,71,29.99,29.82,1,0,12,0.00
2013-7-20,88,82,74,79,75,69,90,80,72,29.85,29.76,2,0,13,0.00
2013-7-21,86,78,72,77,72,69,94,83,67,29.92,29.84,0,0,5,0.02
2013-7-22,85,75,71,78,72,69,97,91,77,29.92,29.75,1,0,6,0.05
2013-7-23,83,76,71,77,73,69,99,90,74,29.75,29.59,1,0,10,1.68
2013-7-24,78,73,64,70,67,56,91,82,66,29.91,29.64,1,0,9,0.01
2013-7-25,72,64,56,64,58,52,88,81,74,30.01,29.91,1,0,6,0.00
2013-7-26,80,70,62,66,62,59,93,79,57,30.05,29.99,1,0,6,0.00
2013-7-27,81,73,59,72,66,57,97,81,71,30.04,29.90,1,0,9,0.00
2013-7-28,79,72,67,75,69,65,97,91,80,29.96,29.86,1,0,7,0.48
2013-7-29,79,71,63,68,64,57,97,81,54,30.11,29.94,1,0,10,0.02
2013-7-30,79,68,59,66,60,55,92,77,59,30.19,30.11,1,0,10,0.00
2013-7-31,79,70,57,70,64,55,97,82,67,30.14,30.01,0,0,6,0.00
2013-8-1,74,70,67,72,68,64,99,94,88,30.01,29.80,0,0,5,0.97
2013-8-2,81,73,66,72,67,62,99,84,64,29.93,29.80,2,0,9,0.01
2013-8-3,75,69,64,69,66,61,93,88,79,29.93,29.87,1,0,12,0.04
2013-8-4,76,68,61,64,61,56,97,79,57,29.98,29.86,3,0,16,0.01
2013-8-5,75,65,55,61,57,53,95,77,51,30.07,29.98,1,0,7,0.00
2013-8-6,72,63,55,66,60,53,96,89,78,30.08,30.02,1,0,9,0.13
2013-8-7,73,69,65,71,68,64,99,97,94,30.08,30.01,0,0,5,0.13
2013-8-8,85,74,68,78,72,67,100,93,75,30.03,29.96,4,0,11,0.30
2013-8-9,83,77,73,78,74,71,99,94,82,29.98,29.81,2,0,8,0.18
2013-8-10,81,75,67,72,68,65,95,82,65,30.04,29.88,2,0,7,0.01
2013-8-11,82,71,61,72,66,60,96,84,66,30.11,29.99,1,0,9,0.00
2013-8-21,85,73,62,75,68,61,100,85,60,30.18,30.06,0,0,9,0.00
2013-8-22,82,75,71,76,72,69,97,91,78,30.06,29.89,1,0,7,0.06
2013-8-23,73,70,62,68,66,59,95,87,78,30.09,29.91,0,0,9,0.02
2013-8-24,78,67,59,65,58,55,90,75,52,30.32,30.09,1,0,9,0.00
2013-8-25,78,64,54,65,55,-100,97,77,57,30.39,30.24,1,0,6,0.00
2013-8-26,84,71,60,71,64,56,90,80,64,30.24,29.93,1,0,11,0.00
2013-8-27,86,76,69,74,69,66,92,81,63,29.93,29.87,0,0,10,0.00
2013-10-18,62,54,44,59,47,41,96,77,60,29.97,29.73,2,0,16,0.01
2013-10-19,61,50,40,54,46,38,96,87,69,29.98,29.73,1,0,9,0.12
2013-10-20,59,49,41,49,39,-100,95,73,56,30.05,29.78,4,0,16,0.06
2013-10-21,64,49,36,48,41,34,95,78,49,30.11,29.94,1,0,11,0.00
2013-10-22,58,50,43,52,45,35,97,83,66,29.94,29.77,1,0,9,0.01
2013-10-23,54,46,41,40,37,34,85,72,56,29.80,29.60,1,0,10,0.01
2013-10-24,49,41,35,37,33,30,90,74,55,30.03,29.78,2,0,15,0.00
2013-10-25,51,44,37,40,36,30,84,71,60,30.22,30.03,3,0,15,0.00
2013-10-26,53,43,34,37,33,29,87,70,53,30.22,29.88,4,1,15,0.00
2013-10-27,55,46,38,41,33,-100,81,64,53,30.11,29.87,2,0,12,0.00
2013-10-28,60,43,31,43,33,-100,93,75,51,30.26,30.10,0,0,7,0.00
2013-10-29,59,45,37,46,39,34,89,78,61,30.36,30.26,0,0,4,0.00
2013-10-30,55,49,40,53,47,38,97,94,87,30.31,30.14,0,0,3,0.00
2013-12-20,49,43,36,40,34,30,86,71,59,30.05,29.95,0,0,7,0.00
2013-12-21,61,51,42,57,45,-100,95,85,78,29.96,29.87,2,0,12,0.00
2013-12-22,64,61,58,63,60,56,97,94,89,29.94,29.77,6,2,19,2.59
2013-12-23,58,51,36,57,49,30,98,94,80,30.14,29.90,1,0,17,1.29
2013-12-24,36,31,22,30,24,13,84,74,64,30.35,30.11,4,0,15,1.71
2013-12-25,28,23,17,17,13,9,72,65,55,30.48,30.35,0,0,10,1.34
2013-12-26,37,27,20,30,22,15,92,81,70,30.33,30.15,1,0,11,4.51
2013-12-27,44,32,22,29,23,18,87,69,48,30.33,30.24,3,0,12,3.14
2013-12-28,46,35,26,30,25,20,79,67,54,30.25,30.20,2,1,14,4.86
2014-1-1,37,32,24,27,24,20,85,72,64,30.35,30.14,1,0,7,0.00
2014-1-2,30,26,17,27,23,15,93,87,77,30.13,29.59,1,0,10,0.00